CAPE
268 454 514 578 848 1020 991 1040 1064 706 549 734 1245 1183 793 673 362 158 0 0 0 0 0 0 0 0 0 0 0 0 0 0 0 0 0 0 0 0 0 0 0 0 0
1 415 504 562 714 924 1031 1011 1206 1219 959 837 984 1279 894 684 493 186 28 0 0 0 0 0 0 0 0 0 0 0 0 0 0 0 0 0 0 0 0 0 0 0 0
255 815 731 820 874 891 981 1135 1127 1227 1513 1315 1084 1315 1052 790 620 288 87 0 0 0 0 0 0 0 0 0 0 0 0 0 0 0 0 0 0 0 0 0 0 0 0
602 613 748 1008 1139 1223 1288 1341 1453 1417 1317 1315 1437 1473 1259 904 835 375 103 0 0 0 0 0 0 0 0 0 0 0 0 0 0 0 0 0 0 0 0 0 0 0 0
1055 1060 1132 1281 1619 1733 1785 1786 1847 1765 1711 1652 1620 1638 1476 975 863 506 120 20 0 0 0 0 0 0 0 0 0 0 0 0 0 0 0 0 0 0 0 0 0 0 0
1731 1760 1842 1929 1988 2072 2212 2270 2262 2170 2073 1929 1825 1713 1418 1043 700 479 123 9 0 0 0 0 0 0 0 0 0 0 0 0 0 0 0 0 0 0 0 0 0 0 0
2197 2266 2286 2306 2375 2414 2395 2385 2358 2293 2219 2096 1958 1742 1572 1272 457 106 61 0 0 0 0 0 0 0 0 0 0 0 0 0 0 0 0 0 0 0 0 0 0 0 0
2417 2436 2560 2566 2525 2520 2557 2564 2511 2478 2425 2366 2107 1856 1716 1379 717 4 25 79 13 0 0 0 0 0 0 0 0 0 0 0 0 0 0 0 0 0 0 0 0 0 0
2140 2599 2716 2723 2678 2522 2448 2559 2631 2533 2418 2331 2178 1965 1743 1430 827 240 220 180 0 0 0 0 0 0 0 0 0 0 0 0 0 0 0 0 0 0 0 0 0 0 0
1740 1481 1541 1651 2040 2113 2499 2500 2467 2385 2482 2475 2389 2106 1824 1633 588 309 283 60 3 0 0 0 0 0 0 0 0 0 0 0 0 0 0 0 0 0 0 0 0 0 0
1394 1064 944 976 1056 1313 1769 2055 2303 2335 2297 2115 2038 1992 1897 1647 863 200 49 80 12 0 0 0 0 0 0 0 0 0 0 0 0 0 0 0 0 0 0 0 0 0 0
967 289 30 22 417 1328 1422 1204 1029 1354 2015 2069 2040 1978 1628 1263 715 242 54 52 0 0 0 0 0 0 0 0 0 0 0 0 0 0 0 0 0 0 0 0 0 0 0
7 0 0 71 366 751 1566 1618 1168 972 919 1367 1791 1756 1520 845 525 108 11 0 0 0 0 0 0 0 0 0 0 0 0 0 0 0 0 0 0 0 0 0 0 0 0
0 0 0 45 328 857 1430 1667 1478 974 940 1115 1546 1636 1290 750 488 51 2 2 2 0 0 0 0 0 0 0 0 0 0 0 0 0 0 0 0 0 0 0 0 0 0
1 24 116 302 481 869 1275 1689 1369 1172 1150 993 1174 1515 1405 983 486 86 4 1 6 2 0 0 0 0 0 0 0 0 0 0 0 0 0 0 0 0 0 0 0 0 0
208 172 132 238 401 549 1027 1114 1062 787 405 197 359 829 1271 1076 705 245 3 0 2 3 0 0 0 0 0 0 0 0 0 0 0 0 0 0 0 0 0 0 0 0 0
82 116 414 391 365 631 885 887 786 641 234 128 30 34 176 1057 746 511 75 0 2 2 4 0 0 0 0 0 0 0 0 0 0 0 0 0 0 0 0 0 0 0 0
178 276 344 444 497 605 658 740 593 598 616 502 160 4 0 0 40 171 126 0 4 0 5 3 0 0 0 0 0 0 0 0 0 0 0 0 0 0 0 0 0 0 0
348 326 326 320 315 231 201 205 154 104 58 0 0 0 0 0 0 0 0 1 0 3 5 3 1 0 0 0 0 0 0 0 0 0 0 0 0 0 0 0 0 0 0
221 124 57 35 7 0 0 0 0 0 0 0 0 5 28 0 0 0 0 0 3 2 4 5 2 0 0 0 0 0 0 0 0 0 0 0 0 0 0 0 0 0 0
0 0 0 0 0 0 0 0 0 0 0 5 0 12 15 0 0 0 0 0 2 4 1 1 3 0 0 0 0 0 0 0 0 0 0 0 0 0 0 0 0 0 0
0 0 0 0 0 0 0 0 0 0 0 0 13 57 0 0 3 1 0 0 0 2 3 3 2 3 0 0 0 0 0 0 0 0 0 0 0 0 0 0 0 0 0
0 0 0 0 0 0 0 0 0 0 1 1 3 4 3 2 1 2 2 2 2 1 1 3 2 2 1 0 0 0 0 0 0 0 0 0 0 0 0 0 0 0 0
0 0 0 0 0 1 1 2 1 1 2 4 4 3 0 1 2 3 1 1 2 2 2 4 6 2 1 1 0 0 0 0 0 0 0 0 0 0 0 0 0 0 0
0 0 0 0 2 3 3 2 2 2 2 2 8 8 2 2 1 3 3 2 3 4 3 3 5 5 1 1 1 1 0 0 0 0 0 0 0 0 0 0 0 0 0
0 0 1 3 4 3 4 4 3 3 2 2 6 16 4 1 0 1 2 3 3 3 2 4 6 3 1 2 2 1 0 0 0 0 0 0 0 0 0 0 0 0 0
CIN
-231 -267 -280 -256 -225 -218 -203 -181 -158 -201 -215 -174 -117 -110 -143 -127 -170 -207 -0 -0 -0 -0 -0 -0 -0 -0 -0 -0 -0 -0 -0 -0 -0 -0 -0 -0 -0 -0 -0 -0 -0 -0 -0
-13 -356 -297 -313 -284 -249 -219 -213 -187 -158 -192 -186 -152 -123 -146 -149 -164 -227 -289 -0 -0 -0 -0 -0 -0 -0 -0 -0 -0 -0 -0 -0 -0 -0 -0 -0 -0 -0 -0 -0 -0 -0 -0
-329 -292 -319 -301 -309 -280 -258 -239 -224 -201 -153 -158 -168 -133 -145 -161 -162 -220 -293 -0 -0 -0 -0 -0 -0 -0 -0 -0 -0 -0 -0 -0 -0 -0 -0 -0 -0 -0 -0 -0 -0 -0 -0
-396 -341 -318 -290 -297 -296 -263 -243 -217 -217 -203 -200 -156 -134 -146 -162 -157 -213 -298 -0 -0 -0 -0 -0 -0 -0 -0 -0 -0 -0 -0 -0 -0 -0 -0 -0 -0 -0 -0 -0 -0 -0 -0
-311 -307 -253 -256 -274 -240 -237 -222 -209 -206 -202 -192 -170 -159 -154 -183 -174 -215 -311 -365 -0 -0 -0 -0 -0 -0 -0 -0 -0 -0 -0 -0 -0 -0 -0 -0 -0 -0 -0 -0 -0 -0 -0
-281 -265 -253 -241 -222 -195 -178 -172 -177 -177 -172 -173 -166 -163 -173 -193 -219 -219 -280 -333 -0 -0 -0 -0 -0 -0 -0 -0 -0 -0 -0 -0 -0 -0 -0 -0 -0 -0 -0 -0 -0 -0 -0
-189 -192 -182 -177 -174 -162 -164 -170 -163 -154 -157 -150 -158 -170 -153 -161 -217 -210 -146 -0 -0 -0 -0 -0 -0 -0 -0 -0 -0 -0 -0 -0 -0 -0 -0 -0 -0 -0 -0 -0 -0 -0 -0
-122 -120 -125 -120 -130 -156 -153 -153 -143 -134 -120 -104 -121 -147 -140 -184 -174 -318 -148 -96 -285 -0 -0 -0 -0 -0 -0 -0 -0 -0 -0 -0 -0 -0 -0 -0 -0 -0 -0 -0 -0 -0 -0
-61 -42 -44 -46 -47 -86 -102 -99 -99 -109 -111 -104 -98 -106 -113 -163 -246 -323 -267 -230 -0 -0 -0 -0 -0 -0 -0 -0 -0 -0 -0 -0 -0 -0 -0 -0 -0 -0 -0 -0 -0 -0 -0
-41 -50 -74 -88 -63 -53 -47 -51 -65 -85 -71 -66 -68 -92 -108 -102 -293 -349 -289 -357 -389 -0 -0 -0 -0 -0 -0 -0 -0 -0 -0 -0 -0 -0 -0 -0 -0 -0 -0 -0 -0 -0 -0
-68 -83 -98 -113 -115 -92 -69 -69 -59 -55 -56 -62 -63 -67 -74 -91 -224 -372 -442 -356 -261 -0 -0 -0 -0 -0 -0 -0 -0 -0 -0 -0 -0 -0 -0 -0 -0 -0 -0 -0 -0 -0 -0
-114 -268 -146 -159 -243 -72 -69 -92 -130 -105 -56 -51 -50 -59 -91 -125 -219 -357 -461 -428 -0 -0 -0 -0 -0 -0 -0 -0 -0 -0 -0 -0 -0 -0 -0 -0 -0 -0 -0 -0 -0 -0 -0
-31 -0 -0 -380 -241 -157 -43 -30 -65 -107 -138 -82 -58 -59 -86 -167 -249 -447 -526 -0 -0 -0 -0 -0 -0 -0 -0 -0 -0 -0 -0 -0 -0 -0 -0 -0 -0 -0 -0 -0 -0 -0 -0
-0 -0 -0 -364 -207 -113 -58 -34 -30 -65 -73 -82 -47 -46 -78 -165 -223 -424 -0 -0 -0 -0 -0 -0 -0 -0 -0 -0 -0 -0 -0 -0 -0 -0 -0 -0 -0 -0 -0 -0 -0 -0 -0
-191 -352 -240 -167 -127 -91 -56 -31 -41 -65 -53 -63 -55 -23 -29 -75 -177 -344 -269 -0 -0 -0 -0 -0 -0 -0 -0 -0 -0 -0 -0 -0 -0 -0 -0 -0 -0 -0 -0 -0 -0 -0 -0
-190 -171 -197 -182 -140 -108 -64 -60 -79 -114 -218 -329 -213 -69 -32 -55 -100 -184 -44 -0 -0 -0 -0 -0 -0 -0 -0 -0 -0 -0 -0 -0 -0 -0 -0 -0 -0 -0 -0 -0 -0 -0 -0
-233 -229 -125 -128 -120 -71 -52 -36 -48 -84 -239 -294 -407 -369 -182 -37 -71 -107 -218 -0 -0 -0 -0 -0 -0 -0 -0 -0 -0 -0 -0 -0 -0 -0 -0 -0 -0 -0 -0 -0 -0 -0 -0
-168 -156 -142 -104 -90 -78 -64 -43 -54 -50 -49 -62 -114 -234 -0 -0 -188 -149 -166 -0 -0 -0 -0 -0 -0 -0 -0 -0 -0 -0 -0 -0 -0 -0 -0 -0 -0 -0 -0 -0 -0 -0 -0
-115 -108 -103 -108 -101 -136 -145 -125 -121 -139 -67 -0 -0 -0 -0 -0 -0 -0 -0 -0 -0 -0 -0 -0 -0 -0 -0 -0 -0 -0 -0 -0 -0 -0 -0 -0 -0 -0 -0 -0 -0 -0 -0
-92 -133 -217 -265 -59 -0 -0 -0 -0 -0 -0 -0 -0 -101 -207 -0 -0 -0 -0 -0 -226 -0 -0 -0 -0 -0 -0 -0 -0 -0 -0 -0 -0 -0 -0 -0 -0 -0 -0 -0 -0 -0 -0
-0 -0 -0 -0 -0 -0 -0 -0 -0 -0 -0 -204 -9 -234 -196 -0 -0 -0 -0 -0 -0 -3 -0 -0 -0 -0 -0 -0 -0 -0 -0 -0 -0 -0 -0 -0 -0 -0 -0 -0 -0 -0 -0
-0 -0 -0 -0 -0 -0 -0 -0 -0 -0 -0 -0 -161 -153 -0 -0 -0 -0 -0 -0 -0 -0 -0 -0 -0 -0 -0 -0 -0 -0 -0 -0 -0 -0 -0 -0 -0 -0 -0 -0 -0 -0 -0
-0 -0 -0 -0 -0 -0 -0 -0 -0 -0 -0 -0 -0 -0 -0 -0 -0 -0 -0 -0 -0 -0 -0 -0 -0 -0 -0 -0 -0 -0 -0 -0 -0 -0 -0 -0 -0 -0 -0 -0 -0 -0 -0
-0 -0 -0 -0 -0 -0 -0 -0 -0 -0 -0 -0 -0 -0 -0 -0 -0 -0 -0 -0 -0 -0 -0 -0 -0 -0 -0 -0 -0 -0 -0 -0 -0 -0 -0 -0 -0 -0 -0 -0 -0 -0 -0
-0 -0 -0 -0 -0 -0 -0 -0 -0 -0 -0 -0 -0 -0 -0 -0 -0 -0 -0 -0 -0 -0 -0 -0 -0 -0 -0 -0 -0 -0 -0 -0 -0 -0 -0 -0 -0 -0 -0 -0 -0 -0 -0
-0 -0 -0 -0 -0 -0 -0 -0 -0 -0 -0 -0 -0 -2 -1 -2 -0 -0 -0 -0 -0 -0 -0 -0 -0 -0 -0 -0 -0 -0 -0 -0 -0 -0 -0 -0 -0 -0 -0 -0 -0 -0 -0
Wind_Speed
22 28 24 23 21 19 18 20 20 14 12 11 9 9 10 10 11 12 12 11 10 10 10 9 8 10 11 12 10 6 5 9 12 12 13 13 14 14 16 17 16 15 16
15 26 25 22 20 19 19 18 16 15 11 10 8 7 7 8 7 8 9 9 9 9 9 9 8 9 9 10 11 9 6 9 13 10 11 12 13 14 15 16 16 17 16
14 13 19 18 13 16 16 15 14 13 11 7 8 7 7 7 8 7 6 6 6 7 7 7 7 7 7 8 9 11 14 11 12 8 9 11 13 13 14 15 15 17 17
10 15 14 16 12 12 11 10 9 9 9 10 12 11 10 9 10 7 6 5 5 5 6 6 6 6 5 6 6 6 12 10 8 6 7 9 11 14 14 13 12 16 17
4 4 5 11 6 7 8 9 8 7 7 8 10 12 10 8 9 9 7 5 3 2 4 5 7 7 6 6 6 6 4 7 6 6 7 9 11 12 13 13 12 13 17
13 11 12 12 10 7 8 9 9 9 8 8 10 12 10 10 10 11 8 6 4 1 1 3 4 6 7 6 6 6 6 5 5 6 8 8 11 12 11 12 12 12 15
11 11 10 11 10 8 8 9 9 10 10 10 10 10 11 12 17 19 23 11 10 8 3 1 2 2 3 4 5 4 3 3 4 5 4 7 9 8 9 11 13 14 15
19 18 17 17 17 14 10 8 7 9 10 10 11 12 12 12 8 8 2 8 5 14 8 2 1 1 2 1 1 2 1 1 1 3 4 6 9 6 8 11 12 14 15
21 21 21 20 21 21 20 17 13 10 8 9 13 13 13 12 10 9 9 11 6 9 5 3 3 3 1 3 1 4 2 3 7 5 4 5 6 6 8 10 13 15 16
21 22 24 25 25 25 24 23 20 14 12 12 11 12 13 12 10 9 9 7 7 8 7 6 5 7 5 7 5 3 6 3 2 4 5 5 4 4 6 11 11 15 16
21 24 26 27 29 29 28 27 26 25 22 19 17 16 14 14 13 9 10 9 10 11 10 9 7 6 10 10 8 6 9 4 2 1 4 4 4 5 6 9 10 12 14
24 27 29 30 30 30 29 29 27 26 24 23 22 22 20 18 15 12 11 11 10 11 11 10 9 9 12 11 9 8 7 8 5 2 5 6 5 6 7 8 9 9 10
24 28 31 31 31 28 27 29 31 29 29 27 24 22 21 19 17 13 10 11 11 12 11 10 9 10 12 10 12 12 9 11 8 5 7 7 5 6 12 14 11 9 7
28 32 34 34 35 32 28 27 28 31 31 30 27 25 25 21 19 17 13 13 13 13 13 11 9 9 10 10 13 14 12 15 11 8 7 8 10 11 12 9 7 7 10
30 33 35 36 36 34 29 27 26 25 24 24 22 22 22 22 21 18 16 15 15 15 14 13 11 9 10 11 12 14 13 14 12 10 8 10 12 11 8 7 8 8 10
35 38 40 41 41 38 33 31 25 26 28 26 26 25 22 21 22 18 17 17 16 15 17 17 15 14 13 14 14 15 15 15 14 12 11 10 14 10 6 8 8 8 9
37 41 40 40 39 35 30 29 33 30 27 26 25 24 23 24 21 19 18 16 16 16 20 20 19 18 15 16 17 15 17 17 16 14 12 12 15 12 8 11 10 10 9
39 39 39 38 35 34 32 31 31 33 34 31 26 24 24 24 23 21 19 17 19 19 22 22 23 22 20 19 19 18 15 17 18 16 14 16 18 18 18 16 11 9 9
38 36 34 34 33 33 32 32 31 31 31 31 31 29 26 25 25 23 18 19 20 21 22 24 26 28 25 22 21 20 18 17 20 17 16 18 17 19 20 14 11 8 8
33 32 33 34 35 35 34 34 33 32 32 32 31 30 25 23 23 20 18 16 16 18 20 21 23 26 27 25 23 22 21 18 21 20 17 17 20 18 16 11 9 8 5
33 34 36 36 36 36 37 36 34 32 32 30 27 25 22 21 22 19 17 15 15 16 16 17 21 24 25 26 26 25 24 24 21 19 17 17 17 15 18 11 9 6 6
33 35 36 37 38 39 38 37 37 34 31 29 28 26 22 20 22 22 19 18 18 19 21 24 27 29 27 27 27 28 27 25 24 20 18 17 21 16 15 13 9 6 4
34 36 37 38 38 40 40 39 38 36 35 32 29 27 23 21 23 22 22 21 21 22 24 25 26 28 30 31 30 30 29 28 27 22 18 21 21 16 14 11 8 6 3
34 35 37 39 40 42 43 43 38 38 37 35 32 28 25 23 21 21 22 23 25 26 27 26 28 30 32 32 31 31 31 29 28 25 20 22 17 14 12 10 8 6 3
34 36 38 41 44 46 47 45 38 37 36 35 33 28 24 23 23 20 21 23 25 29 29 29 31 29 27 29 30 31 27 26 28 28 22 24 17 14 12 11 9 6 4
34 37 39 43 45 48 50 49 43 38 35 31 30 23 21 20 18 18 21 22 23 24 23 21 17 19 23 24 26 28 26 25 28 25 22 20 16 14 13 11 9 6 4
Wind_Direction
276 204 195 190 181 179 178 185 186 167 154 147 133 122 121 117 119 115 109 92 78 60 48 46 35 9 355 337 340 353 354 333 328 334 334 342 346 356 346 349 357 7 4
149 199 195 192 186 183 187 187 181 180 168 161 142 136 134 132 122 121 109 93 93 79 72 55 45 19 17 355 336 328 336 325 314 334 339 341 343 350 352 355 352 355 3
170 151 179 186 179 185 188 187 185 187 186 179 172 168 164 158 156 152 134 110 97 80 69 58 52 48 36 14 355 320 302 312 317 347 356 337 336 347 353 350 359 2 11
175 188 186 188 183 189 194 194 196 198 200 200 196 197 190 184 182 169 163 147 130 105 91 79 59 52 49 31 13 360 304 313 335 15 10 356 345 339 342 354 9 4 5
319 284 248 298 277 221 217 218 225 234 239 231 214 208 210 209 206 199 194 184 169 100 76 94 112 104 57 55 50 56 16 325 354 8 357 348 344 339 338 350 4 3 359
331 330 320 313 302 275 259 243 241 238 249 255 234 228 238 244 240 229 234 238 244 250 83 67 80 109 107 87 67 73 85 57 7 354 341 352 338 340 354 2 5 357 349
5 351 340 329 320 302 280 276 262 266 281 245 243 256 261 274 296 305 287 274 285 289 279 27 50 71 91 84 83 71 61 69 88 54 21 346 347 5 11 7 1 354 356
349 345 338 332 325 324 319 298 269 276 259 258 258 265 270 269 265 289 232 193 289 184 186 196 306 54 116 124 89 49 45 81 58 354 359 354 345 28 20 8 6 1 6
345 336 334 333 326 323 320 317 314 303 271 263 289 275 270 283 261 261 207 217 213 201 233 254 302 331 223 162 157 293 325 333 316 327 353 0 22 54 35 20 358 359 7
359 344 330 322 319 318 319 319 322 320 306 305 293 285 280 285 273 248 227 249 232 221 227 223 222 297 210 193 195 240 271 289 56 333 340 352 24 35 36 353 2 358 7
6 356 341 324 315 313 312 311 312 313 315 314 312 307 297 294 295 260 234 253 235 222 223 226 222 203 204 200 201 200 257 240 272 33 316 329 341 341 353 342 350 358 10
353 348 343 333 321 316 313 311 313 313 312 311 311 310 309 305 298 285 262 247 252 238 239 240 244 227 200 202 205 211 241 249 256 265 287 293 308 320 326 330 339 357 20
348 342 338 336 332 331 323 315 311 312 310 308 309 311 310 308 305 294 263 248 257 259 266 251 241 214 205 207 202 195 210 246 247 250 267 278 294 314 314 313 322 345 18
333 331 331 329 325 324 323 319 316 313 310 307 306 306 308 309 307 301 292 278 271 268 277 265 252 227 212 212 197 193 234 246 244 234 247 274 295 305 311 316 330 352 1
329 329 327 325 323 323 323 321 320 319 318 315 310 306 305 304 304 299 293 287 275 267 271 265 264 251 227 222 207 201 227 240 242 246 244 265 282 296 302 312 325 341 348
323 321 320 319 317 317 316 317 320 317 316 315 312 308 305 301 302 294 286 281 274 270 266 258 255 247 239 223 213 209 226 235 240 239 251 254 274 281 277 302 315 323 336
321 319 320 320 320 320 321 319 315 319 318 314 313 311 308 305 300 294 289 280 273 266 263 258 254 249 247 229 221 219 218 236 245 242 243 248 267 274 271 291 299 316 333
320 321 321 320 320 318 318 317 317 315 312 311 312 310 308 307 305 299 288 281 283 270 271 261 254 254 251 243 237 230 224 236 239 242 244 252 261 267 271 282 292 308 329
321 322 324 324 324 322 321 319 317 315 314 311 310 311 306 305 306 303 294 284 276 269 265 267 262 258 254 251 243 237 231 228 241 237 240 252 254 261 265 276 285 298 326
325 326 327 325 322 321 320 318 316 314 312 311 308 308 307 304 303 301 296 285 278 271 265 262 265 259 255 252 244 238 236 231 239 238 239 246 252 252 255 263 277 292 312
327 326 326 325 323 321 320 318 318 316 313 311 308 309 305 298 297 294 289 279 274 267 267 267 266 262 256 250 247 241 236 236 233 236 239 243 239 234 254 258 271 273 312
330 328 326 325 324 322 321 319 317 315 314 311 308 306 302 292 294 291 284 277 273 272 272 269 269 267 259 250 242 241 236 232 230 223 227 235 238 234 250 259 263 271 293
333 330 328 328 327 324 322 319 318 316 313 309 305 302 297 291 289 284 285 281 277 277 277 272 268 266 259 253 246 238 231 227 227 229 222 231 233 235 244 244 240 260 271
336 334 333 332 330 326 322 320 322 317 312 309 303 297 290 288 287 282 284 284 285 283 281 273 271 265 259 249 243 237 239 231 227 225 210 227 211 224 230 230 229 238 244
338 334 332 331 328 323 323 323 325 322 316 311 305 296 289 286 288 286 287 290 289 291 285 278 273 257 243 238 235 231 226 225 227 218 217 230 210 212 209 220 235 250 258
339 335 333 331 329 326 325 324 327 328 326 317 313 298 293 289 288 288 294 296 296 294 289 281 264 247 239 228 220 217 215 204 202 199 218 217 207 204 208 223 226 234 238